Tracking 28790 objects as of 19-Apr-2024
HD Live streaming from Space Station
objects crossing your sky now

STARLINK-3713

Track STARLINK-3713 now!
10-day predictions
STARLINK-3713 is classified as:


NORAD ID: 52091
Int'l Code: 2022-029D
Perigee: 546.0 km
Apogee: 547.8 km
Inclination: 53.2 °
Period: 95.4 minutes
Semi major axis: 6917 km
RCS: Unknown
Launch date: March 19, 2022
Source: United States (US)
Launch site: AIR FORCE EASTERN TEST RANGE (AFETR)
Your satellite tracking list
Your tracking list is empty




NASA's NSSDC Master Catalog

Two Line Element Set (TLE):
1 52091U 22029D   24109.86390927  .00000156  00000-0  27916-4 0  9993
2 52091  53.2169 305.8730 0001263 102.7107 257.4026 15.08839487116514
Source of the keplerian elements: AFSPC